Year,Month,Day,Hour,Minute,Value (Times are PST for temperature in C)
2008,11,12,00,00,9.00
2008,11,12,00,01,9.00
2008,11,12,00,02,9.00
2008,11,12,00,03,9.00
2008,11,12,00,04,9.00
2008,11,12,00,05,9.00
2008,11,12,00,06,9.00
2008,11,12,00,07,9.00
2008,11,12,00,08,9.10
2008,11,12,00,09,9.10
2008,11,12,00,10,9.00
2008,11,12,00,11,9.10
2008,11,12,00,12,9.10
2008,11,12,00,13,9.10
2008,11,12,00,14,9.10
2008,11,12,00,15,9.10
2008,11,12,00,16,9.10
2008,11,12,00,17,9.10
2008,11,12,00,18,9.10
2008,11,12,00,19,9.10
2008,11,12,00,20,9.10
2008,11,12,00,21,9.10
2008,11,12,00,22,9.10
2008,11,12,00,23,9.10
2008,11,12,00,24,9.10
2008,11,12,00,25,9.10
2008,11,12,00,26,9.10
2008,11,12,00,27,9.10
2008,11,12,00,28,9.10
2008,11,12,00,29,9.10
2008,11,12,00,30,9.10
2008,11,12,00,31,9.10
2008,11,12,00,32,9.10
2008,11,12,00,33,9.20
2008,11,12,00,34,9.20
2008,11,12,00,35,9.20
2008,11,12,00,36,9.20
2008,11,12,00,37,9.20
2008,11,12,00,38,9.20
2008,11,12,00,39,9.20
2008,11,12,00,40,9.20
2008,11,12,00,41,9.20
2008,11,12,00,42,9.20
2008,11,12,00,43,9.20
2008,11,12,00,44,9.20
2008,11,12,00,45,9.20
2008,11,12,00,46,9.20
2008,11,12,00,47,9.20
2008,11,12,00,48,9.20
2008,11,12,00,49,9.20
2008,11,12,00,50,9.20
2008,11,12,00,51,9.20
2008,11,12,00,52,9.20
2008,11,12,00,53,9.20
2008,11,12,00,54,9.20
2008,11,12,00,55,9.20
2008,11,12,00,56,9.30
2008,11,12,00,57,9.30
2008,11,12,00,58,9.30
2008,11,12,00,59,9.30
2008,11,12,01,00,9.30
2008,11,12,01,01,9.30
2008,11,12,01,02,9.30
2008,11,12,01,03,9.30
2008,11,12,01,04,9.30
2008,11,12,01,05,9.30
2008,11,12,01,06,9.30
2008,11,12,01,07,9.30
2008,11,12,01,08,9.30
2008,11,12,01,09,9.30
2008,11,12,01,10,9.30
2008,11,12,01,11,9.30
2008,11,12,01,12,9.30
2008,11,12,01,13,9.30
2008,11,12,01,14,9.30
2008,11,12,01,15,9.30
2008,11,12,01,16,9.30
2008,11,12,01,17,9.30
2008,11,12,01,18,9.30
2008,11,12,01,19,9.30
2008,11,12,01,20,9.30
2008,11,12,01,21,9.30
2008,11,12,01,22,9.30
2008,11,12,01,23,9.30
2008,11,12,01,24,9.30
2008,11,12,01,25,9.30
2008,11,12,01,26,9.30
2008,11,12,01,27,9.30
2008,11,12,01,28,9.30
2008,11,12,01,29,9.30
2008,11,12,01,30,9.40
2008,11,12,01,31,9.40
2008,11,12,01,32,9.40
2008,11,12,01,33,9.40
2008,11,12,01,34,9.40
2008,11,12,01,35,9.40
2008,11,12,01,36,9.40
2008,11,12,01,37,9.40
2008,11,12,01,38,9.40
2008,11,12,01,39,9.40
2008,11,12,01,40,9.40
2008,11,12,01,41,9.40
2008,11,12,01,42,9.40
2008,11,12,01,43,9.40
2008,11,12,01,44,9.40
2008,11,12,01,45,9.40
2008,11,12,01,46,9.40
2008,11,12,01,47,9.40
2008,11,12,01,48,9.40
2008,11,12,01,49,9.40
2008,11,12,01,50,9.40
2008,11,12,01,51,9.40
2008,11,12,01,52,9.40
2008,11,12,01,53,9.40
2008,11,12,01,54,9.40
2008,11,12,01,55,9.40
2008,11,12,01,56,9.40
2008,11,12,01,57,9.40
2008,11,12,01,58,9.40
2008,11,12,01,59,9.40
2008,11,12,02,00,9.40
2008,11,12,02,01,9.40
2008,11,12,02,02,9.50
2008,11,12,02,03,9.50
2008,11,12,02,04,9.50
2008,11,12,02,05,9.50
2008,11,12,02,06,9.50
2008,11,12,02,07,9.50
2008,11,12,02,08,9.50
2008,11,12,02,09,9.50
2008,11,12,02,10,9.50
2008,11,12,02,11,9.50
2008,11,12,02,12,9.50
2008,11,12,02,13,9.50
2008,11,12,02,14,9.50
2008,11,12,02,15,9.40
2008,11,12,02,16,9.40
2008,11,12,02,17,9.40
2008,11,12,02,18,9.40
2008,11,12,02,19,9.40
2008,11,12,02,20,9.40
2008,11,12,02,21,9.50
2008,11,12,02,22,9.40
2008,11,12,02,23,9.40
2008,11,12,02,24,9.40
2008,11,12,02,25,9.50
2008,11,12,02,26,9.50
2008,11,12,02,27,9.40
2008,11,12,02,28,9.40
2008,11,12,02,29,9.40
2008,11,12,02,30,9.40
2008,11,12,02,31,9.40
2008,11,12,02,32,9.40
2008,11,12,02,33,9.40
2008,11,12,02,34,9.40
2008,11,12,02,35,9.40
2008,11,12,02,36,9.40
2008,11,12,02,37,9.40
2008,11,12,02,38,9.40
2008,11,12,02,39,9.40
2008,11,12,02,40,9.40
2008,11,12,02,41,9.40
2008,11,12,02,42,9.40
2008,11,12,02,43,9.40
2008,11,12,02,44,9.40
2008,11,12,02,45,9.40
2008,11,12,02,46,9.40
2008,11,12,02,47,9.40
2008,11,12,02,48,9.40
2008,11,12,02,49,9.40
2008,11,12,02,50,9.40
2008,11,12,02,51,9.40
2008,11,12,02,52,9.50
2008,11,12,02,53,9.50
2008,11,12,02,54,9.50
2008,11,12,02,55,9.50
2008,11,12,02,56,9.50
2008,11,12,02,57,9.50
2008,11,12,02,58,9.50
2008,11,12,02,59,9.60
2008,11,12,03,00,9.60
2008,11,12,03,01,9.60
2008,11,12,03,02,9.60
2008,11,12,03,03,9.60
2008,11,12,03,04,9.60
2008,11,12,03,05,9.60
2008,11,12,03,06,9.60
2008,11,12,03,07,9.60
2008,11,12,03,08,9.60
2008,11,12,03,09,9.60
2008,11,12,03,10,9.60
2008,11,12,03,11,9.60
2008,11,12,03,12,9.60
2008,11,12,03,13,9.60
2008,11,12,03,14,9.60
2008,11,12,03,15,9.60
2008,11,12,03,16,9.60
2008,11,12,03,17,9.60
2008,11,12,03,18,9.60
2008,11,12,03,19,9.60
2008,11,12,03,20,9.60
2008,11,12,03,21,9.60
2008,11,12,03,22,9.60
2008,11,12,03,23,9.60
2008,11,12,03,24,9.60
2008,11,12,03,25,9.60
2008,11,12,03,26,9.50
2008,11,12,03,27,9.60
2008,11,12,03,28,9.60
2008,11,12,03,29,9.60
2008,11,12,03,30,9.60
2008,11,12,04,02,9.30
2008,11,12,04,03,9.30
2008,11,12,04,04,9.30
2008,11,12,04,05,9.20
2008,11,12,04,06,9.20
2008,11,12,04,07,9.20
2008,11,12,04,08,9.20
2008,11,12,04,09,9.20
2008,11,12,04,10,9.20
2008,11,12,04,11,9.10
2008,11,12,04,12,9.10
2008,11,12,04,13,9.20
2008,11,12,04,14,9.30
2008,11,12,04,15,9.40
2008,11,12,04,16,9.40
2008,11,12,04,17,9.40
2008,11,12,04,18,9.40
2008,11,12,04,19,9.40
2008,11,12,04,20,9.40
2008,11,12,04,21,9.40
2008,11,12,04,22,9.50
2008,11,12,04,23,9.50
2008,11,12,04,24,9.50
2008,11,12,04,25,9.50
2008,11,12,04,26,9.50
2008,11,12,04,27,9.60
2008,11,12,04,28,9.60
2008,11,12,04,29,9.60
2008,11,12,04,30,9.70
2008,11,12,04,31,9.70
2008,11,12,04,32,9.80
2008,11,12,04,33,9.90
2008,11,12,04,34,10.00
2008,11,12,04,35,10.00
2008,11,12,04,36,10.10
2008,11,12,04,37,10.10
2008,11,12,04,38,10.10
2008,11,12,04,39,10.20
2008,11,12,04,40,10.30
2008,11,12,04,41,10.50
2008,11,12,04,42,10.60
2008,11,12,04,43,10.80
2008,11,12,04,44,10.90
2008,11,12,04,45,11.00
2008,11,12,04,46,11.10
2008,11,12,04,47,11.20
2008,11,12,04,48,11.30
2008,11,12,04,49,11.50
2008,11,12,04,50,11.90
2008,11,12,04,51,12.10
2008,11,12,04,52,12.10
2008,11,12,04,53,12.10
2008,11,12,04,54,12.10
2008,11,12,04,55,12.00
2008,11,12,04,56,11.80
2008,11,12,04,57,11.60
2008,11,12,04,58,11.20
2008,11,12,04,59,11.00
2008,11,12,05,00,10.80
2008,11,12,05,01,10.70
2008,11,12,05,02,10.50
2008,11,12,05,03,10.40
2008,11,12,05,04,10.40
2008,11,12,05,05,10.30
2008,11,12,05,06,10.30
2008,11,12,05,07,10.30
2008,11,12,05,08,10.20
2008,11,12,05,09,10.20
2008,11,12,05,10,10.20
2008,11,12,05,11,10.20
2008,11,12,05,12,10.20
2008,11,12,05,13,10.20
2008,11,12,05,14,10.30
2008,11,12,05,15,10.30
2008,11,12,05,16,10.30
2008,11,12,05,17,10.20
2008,11,12,05,18,10.20
2008,11,12,05,19,10.10
2008,11,12,05,20,10.10
2008,11,12,05,21,10.10
2008,11,12,05,22,10.10
2008,11,12,05,23,10.10
2008,11,12,05,24,10.30
2008,11,12,05,25,10.50
2008,11,12,05,26,10.80
2008,11,12,05,27,11.00
2008,11,12,05,28,11.30
2008,11,12,05,29,11.70
2008,11,12,05,30,12.10
2008,11,12,05,31,12.50
2008,11,12,05,32,12.70
2008,11,12,05,33,12.80
2008,11,12,05,34,12.80
2008,11,12,05,35,12.70
2008,11,12,05,36,12.80
2008,11,12,05,37,13.00
2008,11,12,05,38,13.10
2008,11,12,05,39,13.20
2008,11,12,05,40,13.20
2008,11,12,05,41,13.20
2008,11,12,05,42,13.20
2008,11,12,05,43,13.20
2008,11,12,05,44,13.20
2008,11,12,05,45,13.30
2008,11,12,05,46,13.40
2008,11,12,05,47,13.50
2008,11,12,05,48,13.60
2008,11,12,05,49,13.60
2008,11,12,05,50,13.60
2008,11,12,05,51,13.60
2008,11,12,05,52,13.70
2008,11,12,05,53,13.60
2008,11,12,05,54,13.60
2008,11,12,05,55,13.60
2008,11,12,05,56,13.60
2008,11,12,05,57,13.60
2008,11,12,05,58,13.60
2008,11,12,05,59,13.60
2008,11,12,06,00,13.60
2008,11,12,06,01,13.60
2008,11,12,06,02,13.50
2008,11,12,06,03,13.50
2008,11,12,06,04,13.50
2008,11,12,06,05,13.40
2008,11,12,06,06,13.40
2008,11,12,06,07,13.40
2008,11,12,06,08,13.40
2008,11,12,06,09,13.30
2008,11,12,06,10,13.30
2008,11,12,06,11,13.30
2008,11,12,06,12,13.30
2008,11,12,06,13,13.20
2008,11,12,06,14,13.00
2008,11,12,06,15,12.90
2008,11,12,06,16,12.70
2008,11,12,06,17,12.50
2008,11,12,06,18,12.40
2008,11,12,06,19,12.30
2008,11,12,06,20,12.30
2008,11,12,06,21,12.30
2008,11,12,06,22,12.30
2008,11,12,06,23,12.10
2008,11,12,06,24,11.90
2008,11,12,06,25,11.70
2008,11,12,06,26,11.50
2008,11,12,06,27,11.30
2008,11,12,06,28,11.10
2008,11,12,06,29,11.00
2008,11,12,06,30,10.90
2008,11,12,06,31,10.80
2008,11,12,06,32,10.70
2008,11,12,06,33,10.60
2008,11,12,06,34,10.50
2008,11,12,06,35,10.50
2008,11,12,06,36,10.40
2008,11,12,06,37,10.40
2008,11,12,06,38,10.50
2008,11,12,06,39,10.60
2008,11,12,06,40,10.60
2008,11,12,06,41,10.60
2008,11,12,06,42,10.60
2008,11,12,06,43,10.60
2008,11,12,06,44,10.50
2008,11,12,06,45,10.60
2008,11,12,06,46,10.60
2008,11,12,06,47,10.70
2008,11,12,06,48,10.90
2008,11,12,06,49,11.20
2008,11,12,06,50,11.20
2008,11,12,06,51,11.20
2008,11,12,06,52,11.10
2008,11,12,06,53,11.00
2008,11,12,06,54,11.00
2008,11,12,06,55,10.80
2008,11,12,06,56,10.70
2008,11,12,06,57,10.50
2008,11,12,06,58,10.40
2008,11,12,06,59,10.40
2008,11,12,07,00,10.40
2008,11,12,07,01,10.30
2008,11,12,07,02,10.30
2008,11,12,07,03,10.20
2008,11,12,07,04,10.20
2008,11,12,07,05,10.20
2008,11,12,07,06,10.20
2008,11,12,07,07,10.20
2008,11,12,07,08,10.20
2008,11,12,07,09,10.20
2008,11,12,07,10,10.10
2008,11,12,07,11,10.10
2008,11,12,07,12,10.10
2008,11,12,07,13,10.10
2008,11,12,07,14,10.10
2008,11,12,07,15,10.10
2008,11,12,07,16,10.10
2008,11,12,07,17,10.10
2008,11,12,07,18,10.10
2008,11,12,07,19,10.20
2008,11,12,07,20,10.20
2008,11,12,07,21,10.30
2008,11,12,07,22,10.40
2008,11,12,07,23,10.50
2008,11,12,07,24,10.70
2008,11,12,07,25,11.00
2008,11,12,07,26,11.30
2008,11,12,07,27,11.50
2008,11,12,07,28,11.70
2008,11,12,07,29,11.90
2008,11,12,07,30,12.00
2008,11,12,07,31,12.10
2008,11,12,07,32,12.10
2008,11,12,07,33,12.20
2008,11,12,07,34,12.30
2008,11,12,07,35,12.30
2008,11,12,07,36,12.30
2008,11,12,07,37,12.30
2008,11,12,07,38,12.30
2008,11,12,07,39,12.30
2008,11,12,07,40,12.30
2008,11,12,07,41,12.30
2008,11,12,07,42,12.30
2008,11,12,07,43,12.30
2008,11,12,07,44,12.30
2008,11,12,07,45,12.30
2008,11,12,07,46,12.20
2008,11,12,07,47,12.30
2008,11,12,07,48,12.30
2008,11,12,07,49,12.30
2008,11,12,07,50,12.20
2008,11,12,07,51,12.20
2008,11,12,07,52,12.20
2008,11,12,07,53,12.20
2008,11,12,07,54,12.10
2008,11,12,07,55,12.10
2008,11,12,07,56,12.10
2008,11,12,07,57,12.20
2008,11,12,07,58,12.30
2008,11,12,07,59,12.30
2008,11,12,08,00,12.30
2008,11,12,08,01,12.30
2008,11,12,08,02,12.30
2008,11,12,08,03,12.30
2008,11,12,08,04,12.30
2008,11,12,08,05,12.30
2008,11,12,08,06,12.30
2008,11,12,08,07,12.30
2008,11,12,08,08,12.30
2008,11,12,08,09,12.30
2008,11,12,08,10,12.20
2008,11,12,08,11,12.30
2008,11,12,08,12,12.30
2008,11,12,08,13,12.30
2008,11,12,08,14,12.40
2008,11,12,08,15,12.50
2008,11,12,08,16,12.60
2008,11,12,08,17,12.60
2008,11,12,08,18,12.60
2008,11,12,08,19,12.50
2008,11,12,08,20,12.50
2008,11,12,08,21,12.60
2008,11,12,08,22,12.60
2008,11,12,08,23,12.70
2008,11,12,08,24,12.60
2008,11,12,08,25,12.50
2008,11,12,08,26,12.30
2008,11,12,08,27,12.20
2008,11,12,08,28,12.10
2008,11,12,08,29,12.00
2008,11,12,08,30,11.80
2008,11,12,08,31,11.70
2008,11,12,08,32,11.60
2008,11,12,08,33,11.60
2008,11,12,08,34,11.50
2008,11,12,08,35,11.50
2008,11,12,08,36,11.40
2008,11,12,08,37,11.40
2008,11,12,08,38,11.30
2008,11,12,08,39,11.30
2008,11,12,08,40,11.30
2008,11,12,08,41,11.30
2008,11,12,08,42,11.40
2008,11,12,08,43,11.40
2008,11,12,08,44,11.50
2008,11,12,08,45,11.50
2008,11,12,08,46,11.50
2008,11,12,08,47,11.60
2008,11,12,08,48,11.70
2008,11,12,08,49,11.70
2008,11,12,08,50,11.70
2008,11,12,08,51,11.60
2008,11,12,08,52,11.50
2008,11,12,08,53,11.40
2008,11,12,08,54,11.30
2008,11,12,08,55,11.20
2008,11,12,08,56,11.20
2008,11,12,08,57,11.10
2008,11,12,08,58,11.10
2008,11,12,08,59,11.10
2008,11,12,09,00,11.10
2008,11,12,09,01,11.00
2008,11,12,09,02,11.00
2008,11,12,09,03,11.00
2008,11,12,09,04,11.00
2008,11,12,09,05,11.10
2008,11,12,09,06,11.10
2008,11,12,09,07,11.10
2008,11,12,09,08,11.20
2008,11,12,09,09,11.30
2008,11,12,09,10,11.40
2008,11,12,09,11,11.50
2008,11,12,09,12,11.60
2008,11,12,09,13,11.60
2008,11,12,09,14,11.60
2008,11,12,09,15,11.50
2008,11,12,09,16,11.50
2008,11,12,09,17,11.40
2008,11,12,09,18,11.40
2008,11,12,09,19,11.40
2008,11,12,09,20,11.40
2008,11,12,09,21,11.40
2008,11,12,09,22,11.40
2008,11,12,09,23,11.40
2008,11,12,09,24,11.30
2008,11,12,09,25,11.30
2008,11,12,09,26,11.30
2008,11,12,09,27,11.30
2008,11,12,09,28,11.30
2008,11,12,09,29,11.20
2008,11,12,09,30,11.20
2008,11,12,09,31,11.20
2008,11,12,09,32,11.20
2008,11,12,09,33,11.10
2008,11,12,09,34,11.10
2008,11,12,09,35,11.10
2008,11,12,09,36,11.10
2008,11,12,09,37,11.10
2008,11,12,09,38,11.10
2008,11,12,09,39,11.10
2008,11,12,09,40,11.10
2008,11,12,09,41,11.10
2008,11,12,09,42,11.10
2008,11,12,09,43,11.10
2008,11,12,09,44,11.10
2008,11,12,09,45,11.10
2008,11,12,09,46,11.10
2008,11,12,09,47,11.10
2008,11,12,09,48,11.10
2008,11,12,09,49,11.10
2008,11,12,09,50,11.20
2008,11,12,09,51,11.20
2008,11,12,09,52,11.20
2008,11,12,09,53,11.20
2008,11,12,09,54,11.20
2008,11,12,09,55,11.20
2008,11,12,09,56,11.20
2008,11,12,09,57,11.20
2008,11,12,09,58,11.20
2008,11,12,09,59,11.20
2008,11,12,10,00,11.10
2008,11,12,10,01,11.10
2008,11,12,10,02,11.10
2008,11,12,10,03,11.10
2008,11,12,10,04,11.20
2008,11,12,10,05,11.20
2008,11,12,10,06,11.20
2008,11,12,10,07,11.20
2008,11,12,10,08,11.30
2008,11,12,10,09,11.40
2008,11,12,10,10,11.40
2008,11,12,10,11,11.40
2008,11,12,10,12,11.40
2008,11,12,10,13,11.40
2008,11,12,10,14,11.40
2008,11,12,10,15,11.50
2008,11,12,10,16,11.50
2008,11,12,10,17,11.60
2008,11,12,10,18,11.70
2008,11,12,10,19,11.70
2008,11,12,10,20,11.70
2008,11,12,10,21,11.70
2008,11,12,10,22,11.80
2008,11,12,10,23,11.80
2008,11,12,10,24,11.80
2008,11,12,10,25,11.80
2008,11,12,10,26,11.80
2008,11,12,10,27,11.80
2008,11,12,10,28,11.80
2008,11,12,10,29,11.70
2008,11,12,10,30,11.70
2008,11,12,10,31,11.70
2008,11,12,10,32,11.70
2008,11,12,10,33,11.70
2008,11,12,10,34,11.80
2008,11,12,10,35,11.90
2008,11,12,10,36,11.90
2008,11,12,10,37,11.90
2008,11,12,10,38,11.90
2008,11,12,10,39,12.00
2008,11,12,10,40,12.00
2008,11,12,10,41,12.00
2008,11,12,10,42,12.00
2008,11,12,10,43,12.10
2008,11,12,10,44,12.10
2008,11,12,10,45,12.10
2008,11,12,10,46,12.10
2008,11,12,10,47,12.20
2008,11,12,10,48,12.20
2008,11,12,10,49,12.30
2008,11,12,10,50,12.40
2008,11,12,10,51,12.50
2008,11,12,10,52,12.70
2008,11,12,10,53,12.80
2008,11,12,10,54,12.90
2008,11,12,10,55,13.00
2008,11,12,10,56,13.20
2008,11,12,10,57,13.20
2008,11,12,10,58,13.20
2008,11,12,10,59,13.20
2008,11,12,11,00,13.20
2008,11,12,11,01,13.20
2008,11,12,11,02,13.20
2008,11,12,11,03,13.20
2008,11,12,11,04,13.10
2008,11,12,11,05,13.00
2008,11,12,11,06,12.90
2008,11,12,11,07,12.90
2008,11,12,11,08,12.90
2008,11,12,11,09,12.90
2008,11,12,11,10,13.00
2008,11,12,11,11,13.00
2008,11,12,11,12,13.00
2008,11,12,11,13,13.00
2008,11,12,11,14,13.10
2008,11,12,11,15,13.10
2008,11,12,11,16,13.20
2008,11,12,11,17,13.30
2008,11,12,11,18,13.50
2008,11,12,11,19,13.60
2008,11,12,11,20,13.60
2008,11,12,11,21,13.70
2008,11,12,11,22,13.80
2008,11,12,11,23,13.80
2008,11,12,11,24,13.90
2008,11,12,11,25,13.90
2008,11,12,11,26,13.90
2008,11,12,11,27,13.90
2008,11,12,11,28,13.90
2008,11,12,11,29,13.90
2008,11,12,11,30,13.90
2008,11,12,11,31,13.90
2008,11,12,11,32,13.90
2008,11,12,11,33,13.90
2008,11,12,11,34,13.90
2008,11,12,11,35,13.90
2008,11,12,11,36,13.90
2008,11,12,11,37,13.90
2008,11,12,11,38,13.90
2008,11,12,11,39,13.90
2008,11,12,11,40,13.90
2008,11,12,11,41,13.90
2008,11,12,11,42,13.80
2008,11,12,11,43,13.80
2008,11,12,11,44,13.80
2008,11,12,11,45,13.80
2008,11,12,11,46,13.90
2008,11,12,11,47,13.90
2008,11,12,11,48,13.90
2008,11,12,11,49,13.90
2008,11,12,11,50,13.90
2008,11,12,11,51,13.90
2008,11,12,11,52,13.90
2008,11,12,11,53,14.00
2008,11,12,11,54,14.00
2008,11,12,11,55,14.00
2008,11,12,11,56,14.10
2008,11,12,11,57,14.10
2008,11,12,11,58,14.20
2008,11,12,11,59,14.20
2008,11,12,12,00,14.20
2008,11,12,12,01,14.30
2008,11,12,12,02,14.40
2008,11,12,12,03,14.40
2008,11,12,12,04,14.50
2008,11,12,12,05,14.60
2008,11,12,12,06,14.70
2008,11,12,12,07,14.80
2008,11,12,12,08,14.80
2008,11,12,12,09,14.90
2008,11,12,12,10,15.00
2008,11,12,12,11,15.00
2008,11,12,12,12,15.00
2008,11,12,12,13,15.00
2008,11,12,12,14,15.00
2008,11,12,12,15,15.00
2008,11,12,12,16,15.00
2008,11,12,12,17,15.00
2008,11,12,12,18,15.00
2008,11,12,12,19,15.00
2008,11,12,12,20,15.00
2008,11,12,12,21,14.90
2008,11,12,12,22,14.90
2008,11,12,12,23,14.90
2008,11,12,12,24,14.90
2008,11,12,12,25,14.90
2008,11,12,12,26,14.90
2008,11,12,12,27,14.90
2008,11,12,12,28,14.90
2008,11,12,12,29,14.80
2008,11,12,12,30,14.80
2008,11,12,12,31,14.80
2008,11,12,12,32,14.80
2008,11,12,12,33,14.70
2008,11,12,12,34,14.70
2008,11,12,12,35,14.60
2008,11,12,12,36,14.60
2008,11,12,12,37,14.50
2008,11,12,12,38,14.50
2008,11,12,12,39,14.50
2008,11,12,12,40,14.40
2008,11,12,12,41,14.40
2008,11,12,12,42,14.30
2008,11,12,12,43,14.30
2008,11,12,12,44,14.30
2008,11,12,12,45,14.20
2008,11,12,12,46,14.20
2008,11,12,12,47,14.10
2008,11,12,12,48,14.10
2008,11,12,12,49,14.10
2008,11,12,12,50,14.00
2008,11,12,12,51,13.90
2008,11,12,12,52,13.90
2008,11,12,12,53,13.80
2008,11,12,12,54,13.80
2008,11,12,12,55,13.80
2008,11,12,12,56,13.80
2008,11,12,12,57,13.80
2008,11,12,12,58,13.70
2008,11,12,12,59,13.70
2008,11,12,13,00,13.70
2008,11,12,13,01,13.70
2008,11,12,13,02,13.60
2008,11,12,13,03,13.60
2008,11,12,13,04,13.60
2008,11,12,13,05,13.60
2008,11,12,13,06,13.60
2008,11,12,13,07,13.60
2008,11,12,13,08,13.60
2008,11,12,13,09,13.60
2008,11,12,13,10,13.60
2008,11,12,13,11,13.50
2008,11,12,13,12,13.60
2008,11,12,13,13,13.60
2008,11,12,13,14,13.60
2008,11,12,13,15,13.60
2008,11,12,13,16,13.60
2008,11,12,13,17,13.60
2008,11,12,13,18,13.50
2008,11,12,13,19,13.50
2008,11,12,13,20,13.50
2008,11,12,13,21,13.50
2008,11,12,13,22,13.40
2008,11,12,13,23,13.40
2008,11,12,13,24,13.40
2008,11,12,13,25,13.40
2008,11,12,13,26,13.40
2008,11,12,13,27,13.40
2008,11,12,13,28,13.30
2008,11,12,13,29,13.30
2008,11,12,13,30,13.30
2008,11,12,13,31,13.30
2008,11,12,13,32,13.30
2008,11,12,13,33,13.30
2008,11,12,13,34,13.30
2008,11,12,13,35,13.30
2008,11,12,13,36,13.30
2008,11,12,13,37,13.30
2008,11,12,13,38,13.30
2008,11,12,13,39,13.30
2008,11,12,13,40,13.30
2008,11,12,13,41,13.30
2008,11,12,13,42,13.30
2008,11,12,13,43,13.40
2008,11,12,13,44,13.40
2008,11,12,13,45,13.40
2008,11,12,13,46,13.40
2008,11,12,13,47,13.40
2008,11,12,13,48,13.40
2008,11,12,13,49,13.50
2008,11,12,13,50,13.50
2008,11,12,13,51,13.50
2008,11,12,13,52,13.60
2008,11,12,13,53,13.60
2008,11,12,13,54,13.60
2008,11,12,13,55,13.60
2008,11,12,13,56,13.70
2008,11,12,13,57,13.70
2008,11,12,13,58,13.70
2008,11,12,13,59,13.70
2008,11,12,14,00,13.70
2008,11,12,14,01,13.70
2008,11,12,14,02,13.80
2008,11,12,14,03,13.80
2008,11,12,14,04,13.80
2008,11,12,14,05,13.80
2008,11,12,14,06,13.80
2008,11,12,14,07,13.80
2008,11,12,14,08,13.70
2008,11,12,14,09,13.70
2008,11,12,14,10,13.70
2008,11,12,14,11,13.70
2008,11,12,14,12,13.70
2008,11,12,14,13,13.60
2008,11,12,14,14,13.60
2008,11,12,14,15,13.60
2008,11,12,14,16,13.60
2008,11,12,14,17,13.60
2008,11,12,14,18,13.60
2008,11,12,14,19,13.60
2008,11,12,14,20,13.60
2008,11,12,14,21,13.50
2008,11,12,14,22,13.50
2008,11,12,14,23,13.50
2008,11,12,14,24,13.50
2008,11,12,14,25,13.50
2008,11,12,14,26,13.50
2008,11,12,14,27,13.50
2008,11,12,14,28,13.50
2008,11,12,14,29,13.40
2008,11,12,14,30,13.40
2008,11,12,14,31,13.40
2008,11,12,14,32,13.40
2008,11,12,14,33,13.30
2008,11,12,14,34,13.30
2008,11,12,14,35,13.20
2008,11,12,14,36,13.20
2008,11,12,14,37,13.10
2008,11,12,14,38,13.10
2008,11,12,14,39,13.00
2008,11,12,14,40,12.90
2008,11,12,14,41,12.90
2008,11,12,14,42,12.80
2008,11,12,14,43,12.80
2008,11,12,14,44,12.70
2008,11,12,14,45,12.70
2008,11,12,14,46,12.70
2008,11,12,14,47,12.70
2008,11,12,14,48,12.70
2008,11,12,14,49,12.70
2008,11,12,14,50,12.70
2008,11,12,14,51,12.70
2008,11,12,14,52,12.80
2008,11,12,14,53,12.70
2008,11,12,14,54,12.70
2008,11,12,14,55,12.70
2008,11,12,14,56,12.70
2008,11,12,14,57,12.80
2008,11,12,14,58,12.80
2008,11,12,14,59,12.80
2008,11,12,15,00,12.80
2008,11,12,15,01,12.80
2008,11,12,15,02,12.80
2008,11,12,15,03,12.90
2008,11,12,15,04,12.90
2008,11,12,15,05,12.90
2008,11,12,15,06,13.00
2008,11,12,15,07,13.10
2008,11,12,15,08,13.10
2008,11,12,15,09,13.20
2008,11,12,15,10,13.20
2008,11,12,15,11,13.20
2008,11,12,15,12,13.30
2008,11,12,15,13,13.30
2008,11,12,15,14,13.30
2008,11,12,15,15,13.30
2008,11,12,15,16,13.30
2008,11,12,15,17,13.40
2008,11,12,15,18,13.40
2008,11,12,15,19,13.40
2008,11,12,15,20,13.40
2008,11,12,15,21,13.40
2008,11,12,15,22,13.40
2008,11,12,15,23,13.40
2008,11,12,15,24,13.40
2008,11,12,15,25,13.30
2008,11,12,15,26,13.30
2008,11,12,15,27,13.30
2008,11,12,15,28,13.30
2008,11,12,15,29,13.20
2008,11,12,15,30,13.20
2008,11,12,15,31,13.20
2008,11,12,15,32,13.20
2008,11,12,15,33,13.20
2008,11,12,15,34,13.20
2008,11,12,15,35,13.10
2008,11,12,15,36,13.10
2008,11,12,15,37,13.10
2008,11,12,15,38,13.10
2008,11,12,15,39,13.10
2008,11,12,15,40,13.10
2008,11,12,15,41,13.10
2008,11,12,15,42,13.10
2008,11,12,15,43,13.10
2008,11,12,15,44,13.10
2008,11,12,15,45,13.10
2008,11,12,15,46,13.00
2008,11,12,15,47,13.00
2008,11,12,15,48,12.90
2008,11,12,15,49,12.90
2008,11,12,15,50,12.80
2008,11,12,15,51,12.80
2008,11,12,15,52,12.80
2008,11,12,15,53,12.80
2008,11,12,15,54,12.70
2008,11,12,15,55,12.70
2008,11,12,15,56,12.70
2008,11,12,15,57,12.70
2008,11,12,15,58,12.70
2008,11,12,15,59,12.60
2008,11,12,16,00,12.60
2008,11,12,16,01,12.60
2008,11,12,16,02,12.60
2008,11,12,16,03,12.60
2008,11,12,16,04,12.60
2008,11,12,16,05,12.60
2008,11,12,16,06,12.60
2008,11,12,16,07,12.60
2008,11,12,16,08,12.50
2008,11,12,16,09,12.50
2008,11,12,16,10,12.50
2008,11,12,16,11,12.50
2008,11,12,16,12,12.40
2008,11,12,16,13,12.40
2008,11,12,16,14,12.40
2008,11,12,16,15,12.40
2008,11,12,16,16,12.40
2008,11,12,16,17,12.40
2008,11,12,16,18,12.40
2008,11,12,16,19,12.30
2008,11,12,16,20,12.30
2008,11,12,16,21,12.30
2008,11,12,16,22,12.30
2008,11,12,16,23,12.30
2008,11,12,16,24,12.30
2008,11,12,16,25,12.30
2008,11,12,16,26,12.30
2008,11,12,16,27,12.30
2008,11,12,16,28,12.30
2008,11,12,16,29,12.30
2008,11,12,16,30,12.30
2008,11,12,16,31,12.20
2008,11,12,16,32,12.20
2008,11,12,16,33,12.20
2008,11,12,16,34,12.20
2008,11,12,16,35,12.20
2008,11,12,16,36,12.10
2008,11,12,16,37,12.20
2008,11,12,16,38,12.20
2008,11,12,16,39,12.20
2008,11,12,16,40,12.20
2008,11,12,16,41,12.20
2008,11,12,16,42,12.40
2008,11,12,16,43,12.60
2008,11,12,16,44,12.70
2008,11,12,16,45,12.60
2008,11,12,16,46,12.60
2008,11,12,16,47,12.50
2008,11,12,16,48,12.40
2008,11,12,16,49,12.40
2008,11,12,16,50,12.40
2008,11,12,16,51,12.30
2008,11,12,16,52,12.30
2008,11,12,16,53,12.30
2008,11,12,16,54,12.30
2008,11,12,16,55,12.20
2008,11,12,16,56,12.20
2008,11,12,16,57,12.20
2008,11,12,16,58,12.20
2008,11,12,16,59,12.20
2008,11,12,17,00,12.30
2008,11,12,17,01,12.30
2008,11,12,17,02,12.30
2008,11,12,17,03,12.40
2008,11,12,17,04,12.60
2008,11,12,17,05,12.60
2008,11,12,17,06,12.70
2008,11,12,17,07,12.70
2008,11,12,17,08,12.70
2008,11,12,17,09,12.70
2008,11,12,17,10,12.70
2008,11,12,17,11,12.70
2008,11,12,17,12,12.70
2008,11,12,17,13,12.70
2008,11,12,17,14,12.70
2008,11,12,17,15,12.70
2008,11,12,17,16,12.70
2008,11,12,17,17,12.70
2008,11,12,17,18,12.70
2008,11,12,17,19,12.70
2008,11,12,17,20,12.70
2008,11,12,17,21,12.60
2008,11,12,17,22,12.70
2008,11,12,17,23,12.70
2008,11,12,17,24,12.70
2008,11,12,17,25,12.70
2008,11,12,17,26,12.70
2008,11,12,17,27,12.60
2008,11,12,17,28,12.60
2008,11,12,17,29,12.60
2008,11,12,17,30,12.60
2008,11,12,17,31,12.60
2008,11,12,17,32,12.50
2008,11,12,17,33,12.50
2008,11,12,17,34,12.50
2008,11,12,17,35,12.50
2008,11,12,17,36,12.40
2008,11,12,17,37,12.40
2008,11,12,17,38,12.40
2008,11,12,17,39,12.40
2008,11,12,17,40,12.40
2008,11,12,17,41,12.40
2008,11,12,17,42,12.30
2008,11,12,17,43,12.30
2008,11,12,17,44,12.30
2008,11,12,17,45,12.30
2008,11,12,17,46,12.20
2008,11,12,17,47,12.20
2008,11,12,17,48,12.20
2008,11,12,17,49,12.10
2008,11,12,17,50,12.10
2008,11,12,17,51,12.10
2008,11,12,17,52,12.00
2008,11,12,17,53,12.00
2008,11,12,17,54,11.90
2008,11,12,17,55,11.90
2008,11,12,17,56,11.90
2008,11,12,17,57,11.80
2008,11,12,17,58,11.80
2008,11,12,17,59,11.80
2008,11,12,18,00,11.70
2008,11,12,18,01,11.70